Regional Weather Roundup
Issued by NWS Albany, NY

Home | Current Version | Previous Version | Text Only | Print | Product List | Glossary On
Versions: 1 2 3 4 5 6 7 8 9 10 11 12 13 14 15 16 17 18 19 20 21 22 23 24 25 26 27 28 29
000
ASUS41 KALY 281010
RWRALY

NEW YORK STATE HOURLY WEATHER ROUNDUP
NATIONAL WEATHER SERVICE ALBANY NY
600 AM EDT THU APR 28 2016

NOTE: "FAIR" INDICATES FEW OR NO CLOUDS BELOW 12,000 FEET WITH NO
SIGNIFICANT WEATHER AND/OR NO OBSTRUCTIONS TO VISIBILITY.

NYZ032-033-038>043-046>054-057>066-NYZ062>081-082-084-281100-
EAST


CITY           SKY/WX    TMP DP  RH WIND       PRES   REMARKS
ALBANY         CLOUDY    36  20  52 N5        30.03R WCI  32
GLENS FALLS    CLOUDY    33  20  58 N6        30.03R WCI  28
POUGHKEEPSIE   PTCLDY    36  27  69 CALM      30.01R
NEWBURGH       CLEAR     39  25  56 E12       30.00R WCI  32
MONTGOMERY     MOCLDY    35  30  82 CALM      30.00R
WHITE PLAINS   CLOUDY    43  18  36 N5        29.99R
ISLIP          MOCLDY    45  25  45 N7        29.99R
NEW YORK CITY  MOCLDY    48  23  37 NE14      29.99R
CENTRAL PARK   CLOUDY    48  22  35 VRB6      30.02R
$$

NYZ005>009-017-018-044>046-055-056-281100-
CENTRAL


CITY           SKY/WX    TMP DP  RH WIND       PRES   REMARKS
FULTON         CLOUDY    34  20  56 CALM      30.06R
SYRACUSE       MOCLDY    31  26  82 CALM      30.05R
ROME           CLOUDY    26  23  88 CALM      30.06R
ELMIRA         CLOUDY    32  24  72 CALM      30.02R
BINGHAMTON     CLOUDY    34  18  52 CALM      29.99R
MONTICELLO     MOCLDY    30  21  69 N5        30.00R WCI  25
$$

NYZ026>034-041>043-087-281100-
NORTH


CITY           SKY/WX    TMP DP  RH WIND       PRES   REMARKS
WATERTOWN      CLOUDY    23  21  92 NE5       30.05R WCI  17
FORT DRUM      NOT AVBL
MASSENA        CLEAR     29  18  63 NW3       30.10R
SARANAC LAKE   CLEAR     16  13  88 CALM      29.98R
PLATTSBURGH    CLEAR     32  15  49 NW10      30.04R WCI  24
$$

NYZ001>004-010>016-019>021-085-281100-
WEST


CITY           SKY/WX    TMP DP  RH WIND       PRES   REMARKS
NIAGARA FALLS  CLOUDY    35  24  64 NE6       30.03R WCI  30
BUFFALO        CLOUDY    35  22  58 NE6       30.03R WCI  30
DUNKIRK        PTCLDY    38  23  55 NE7       30.00R WCI  33
JAMESTOWN      CLOUDY    37  19  48 NE6       29.95S WCI  33
WELLSVILLE     CLOUDY    35  18  49 E7        29.98S WCI  29
ROCHESTER      MOCLDY    32  23  69 CALM      30.06R
PENN YAN       CLOUDY    36  23  59 VRB3      30.03R
$$

             KEY
       WCI = WIND CHILL INDEX
       VSB = VISIBILITY
       HX  = HEAT INDEX
$$




USA.gov is the U.S. government's official web portal to all federal, state and local government web resources and services.